Waarnemingen

Advertentie
Mijn weer
Landsort, Zweden (2567): temperatuur & dauwpunt: 11.02.2019 13:00:00 - 17.02.2019 13:00:00 (CET)Landsort, Zweden (2567): windsnelheid & windstoten: 11.02.2019 13:00:00 - 17.02.2019 13:00:00 (CET)Landsort, Zweden (2567): windrichting: 11.02.2019 13:00:00 - 17.02.2019 13:00:00 (CET)Landsort, Zweden (2567): luchtdruk: 11.02.2019 13:00:00 - 17.02.2019 13:00:00 (CET)Landsort, Zweden (2567): zicht: 11.02.2019 13:00:00 - 17.02.2019 13:00:00 (CET)Landsort, Zweden (2567): neerslag: 11.02.2019 13:00:00 - 17.02.2019 13:00:00 (CET)
Datum & Tijd tt [°C] td [°C] ff [km/u] ff [kn] fx [km/u] fx [kn] dd ppp [hPa] vv [km] rr [mm]
17.02.2019 13:00:00 - - - - - - - - - -
17.02.2019 12:00:00 2,1 -1,1 7 4 11 6 NW 1020,4 50 0,0
17.02.2019 11:00:00 1,9 -1,1 7 4 15 8 WNW 1020,0 38 0,0
17.02.2019 10:00:00 1,6 -0,6 8 4 18 10 NW 1019,6 34 0,0
17.02.2019 09:00:00 1,6 -0,8 11 6 18 10 NW 1019,2 44 0,0
17.02.2019 08:00:00 1,5 -0,7 10 5 17 9 WNW 1018,7 35 0,0
17.02.2019 07:00:00 - - - - - - - - - -
17.02.2019 06:00:00 1,7 0,2 9 5 24 13 N 1017,1 19 0,0
17.02.2019 05:00:00 2,3 0,5 18 10 25 14 NNW 1016,9 19 0,0
17.02.2019 04:00:00 2,5 1,0 18 10 23 12 NW 1016,4 16 0,0
17.02.2019 03:00:00 2,7 1,5 17 9 22 12 NW 1016,0 12 0,0
17.02.2019 02:00:00 3,0 1,7 16 9 27 15 NW 1015,0 12 0,0
17.02.2019 01:00:00 3,4 2,0 17 9 32 17 WNW 1014,5 12 0,0
17.02.2019 00:00:00 3,5 2,1 21 12 32 17 WNW 1013,7 11 0,0
16.02.2019 23:00:00 3,5 2,1 24 13 30 16 WNW 1012,9 10 0,0
16.02.2019 22:00:00 3,8 2,2 23 13 39 21 WNW 1012,6 11 0,0
16.02.2019 21:00:00 4,9 2,5 22 12 39 21 WNW 1012,0 13 0,0
16.02.2019 20:00:00 5,1 2,3 23 13 36 19 NW 1011,6 15 0,0
16.02.2019 19:00:00 4,8 1,9 25 14 54 29 W 1010,7 17 0,0
16.02.2019 18:00:00 4,5 1,5 32 18 56 30 W 1009,8 18 0,0
16.02.2019 17:00:00 5,9 1,4 47 25 56 30 W 1008,5 23 0,0
16.02.2019 16:00:00 5,6 0,6 36 19 49 26 WZW 1008,5 43 0,0
16.02.2019 15:00:00 4,5 0,6 18 10 38 20 WZW 1009,9 44 0,0
16.02.2019 14:00:00 4,3 0,8 19 10 41 22 WZW 1010,4 26 0,0
16.02.2019 13:00:00 4,4 0,8 26 14 41 22 ZW 1010,7 22 0,0
16.02.2019 12:00:00 3,9 0,5 31 17 43 23 ZW 1011,6 21 0,0
16.02.2019 11:00:00 3,7 0,5 34 19 43 23 ZW 1012,3 21 0,0
16.02.2019 10:00:00 3,8 0,0 34 18 48 26 ZW 1012,9 24 0,0
16.02.2019 09:00:00 3,7 -0,1 32 17 48 26 ZW 1013,5 21 0,0
16.02.2019 08:00:00 3,4 -0,2 39 21 50 27 WZW 1013,7 28 0,0
16.02.2019 07:00:00 3,6 -0,4 42 23 50 27 WZW 1014,0 30 0,0
16.02.2019 06:00:00 3,0 0,0 33 18 41 22 ZW 1014,6 35 0,0
16.02.2019 05:00:00 3,0 0,2 26 14 43 23 ZW 1015,6 39 0,0
16.02.2019 04:00:00 3,3 0,2 35 19 43 23 ZW 1016,3 50 0,0
16.02.2019 03:00:00 3,3 0,2 32 17 39 21 ZW 1017,3 50 0,0
16.02.2019 02:00:00 3,0 0,3 32 17 41 22 WZW 1018,0 32 0,0
16.02.2019 01:00:00 3,3 0,3 31 17 41 22 WZW 1018,7 44 0,0
16.02.2019 00:00:00 3,2 0,5 29 16 37 20 WZW 1018,9 49 0,0
15.02.2019 23:00:00 3,0 0,7 29 15 35 19 WZW 1019,6 39 0,0
15.02.2019 22:00:00 3,0 0,8 22 12 35 19 WZW 1019,9 50 0,0
15.02.2019 21:00:00 3,6 1,0 25 14 38 21 W 1020,1 50 0,0
15.02.2019 20:00:00 3,3 1,3 31 17 43 23 W 1020,6 50 0,0
15.02.2019 19:00:00 3,3 1,7 33 18 46 25 W 1021,2 48 0,0
15.02.2019 18:00:00 3,5 2,1 33 18 46 25 W 1021,3 34 0,0
15.02.2019 17:00:00 3,7 2,5 38 21 46 25 WZW 1021,5 36 0,0
15.02.2019 16:00:00 3,7 2,6 32 18 41 22 WZW 1021,9 32 0,0
15.02.2019 15:00:00 3,6 2,8 31 17 39 21 WZW 1022,1 20 0,0
15.02.2019 14:00:00 4,0 3,0 29 16 38 21 WZW 1022,7 26 0,0
15.02.2019 13:00:00 3,9 2,8 24 13 33 18 WZW 1023,2 38 0,0
15.02.2019 12:00:00 3,8 2,8 27 14 33 18 W 1023,2 27 0,0
15.02.2019 11:00:00 3,5 2,7 17 9 30 16 WZW 1023,6 20 0,0
15.02.2019 10:00:00 3,1 2,5 19 10 29 16 W 1023,8 12 0,0
15.02.2019 09:00:00 2,9 2,5 18 10 31 17 W 1023,7 10 0,0
15.02.2019 08:00:00 2,8 2,5 16 8 35 19 W 1023,3 9 0,0
15.02.2019 07:00:00 2,7 2,2 29 16 35 19 W 1022,9 8 0,0
15.02.2019 06:00:00 2,7 2,3 28 15 35 19 W 1022,8 9 0,0
15.02.2019 05:00:00 2,8 2,2 22 12 34 18 W 1022,9 10 0,0
15.02.2019 04:00:00 2,8 2,2 30 16 37 20 W 1022,7 11 0,0
15.02.2019 03:00:00 2,8 2,0 29 16 37 20 W 1022,6 12 0,0
15.02.2019 02:00:00 3,1 2,0 33 18 37 20 W 1022,6 15 0,0
15.02.2019 01:00:00 3,0 2,0 26 14 32 17 W 1022,6 16 0,0
15.02.2019 00:00:00 3,6 2,2 26 14 36 19 W 1022,4 20 0,0
14.02.2019 23:00:00 3,5 2,0 29 16 36 19 W 1022,1 17 0,0
14.02.2019 22:00:00 3,7 2,1 24 13 40 22 WNW 1021,7 19 0,0
14.02.2019 21:00:00 3,8 2,2 24 13 40 22 W 1021,0 19 0,0
14.02.2019 20:00:00 3,9 2,4 29 15 46 25 WZW 1020,2 23 0,0
14.02.2019 19:00:00 3,7 2,4 22 12 47 25 W 1020,7 24 0,0
14.02.2019 18:00:00 4,0 2,6 34 18 47 25 W 1020,8 23 0,0
14.02.2019 17:00:00 4,1 2,6 35 19 46 25 WZW 1021,3 22 0,0
14.02.2019 16:00:00 4,4 2,9 37 20 46 25 WZW 1021,6 23 0,0
14.02.2019 15:00:00 4,5 3,1 39 21 46 25 W 1021,3 31 0,0
14.02.2019 14:00:00 4,4 3,1 38 20 44 24 W 1021,7 47 0,0
14.02.2019 13:00:00 4,1 2,9 31 17 39 21 W 1022,3 41 0,0
14.02.2019 12:00:00 3,7 3,0 29 16 36 20 WZW 1023,1 18 0,0
14.02.2019 11:00:00 3,0 2,7 23 12 38 20 WZW 1023,6 9 0,0
14.02.2019 10:00:00 3,0 2,6 28 15 38 20 WZW 1023,5 6 0,0
14.02.2019 09:00:00 2,7 2,2 29 15 39 21 W 1023,6 11 0,0
14.02.2019 08:00:00 2,3 1,6 26 14 39 21 W 1023,8 9 0,0
14.02.2019 07:00:00 2,0 1,2 29 15 37 20 W 1023,4 8 0,0
14.02.2019 06:00:00 1,8 0,0 20 11 26 14 W 1023,1 11 0,0
14.02.2019 05:00:00 1,8 -0,3 19 11 26 14 W 1023,1 16 0,0
14.02.2019 04:00:00 1,8 -0,1 19 10 26 14 W 1023,2 21 0,0
14.02.2019 03:00:00 2,0 0,0 18 10 26 14 W 1022,9 21 0,0
14.02.2019 02:00:00 2,2 -0,1 17 9 26 14 W 1022,5 25 0,0
14.02.2019 01:00:00 2,2 -0,3 14 8 33 18 W 1021,7 31 0,0
14.02.2019 00:00:00 4,5 -1,6 19 10 33 18 WNW 1021,2 49 0,0
13.02.2019 23:00:00 3,6 -0,8 27 15 33 18 WNW 1020,4 42 0,0
13.02.2019 22:00:00 5,2 -1,4 22 12 32 18 NW 1019,4 40 0,0
13.02.2019 21:00:00 4,5 -0,8 22 12 34 19 NNW 1019,1 49 0,0
13.02.2019 20:00:00 4,7 -0,5 22 12 34 19 NW 1018,4 50 0,0
13.02.2019 19:00:00 3,9 0,1 19 10 37 20 WNW 1017,7 50 0,0
13.02.2019 18:00:00 4,0 0,5 17 9 37 20 WNW 1017,1 50 0,0
13.02.2019 17:00:00 4,2 0,6 27 14 40 21 WNW 1016,1 50 0,0
13.02.2019 16:00:00 5,0 0,7 33 18 40 21 WNW 1015,2 50 0,0
13.02.2019 15:00:00 4,5 1,0 25 14 34 18 W 1015,0 50 0,0
13.02.2019 14:00:00 4,2 0,8 23 13 32 18 W 1014,0 50 0,0
13.02.2019 13:00:00 5,1 1,1 23 12 41 22 WNW 1013,4 50 0,0
13.02.2019 12:00:00 4,6 1,1 21 11 46 25 WNW 1012,7 50 0,0
13.02.2019 11:00:00 4,7 1,0 28 15 47 26 NW 1011,3 50 0,0
13.02.2019 10:00:00 4,0 1,2 27 14 47 26 NW 1010,0 47 0,0
13.02.2019 09:00:00 4,1 1,7 25 14 44 24 NW 1008,8 50 0,0
13.02.2019 08:00:00 3,6 2,2 34 18 44 24 WNW 1007,2 43 0,0
13.02.2019 07:00:00 3,1 2,3 31 17 35 19 W 1006,2 29 0,0
13.02.2019 06:00:00 3,1 2,6 25 14 54 29 W 1006,5 25 -
13.02.2019 05:00:00 2,1 1,8 32 17 55 30 WZW 1007,3 10 0,0
13.02.2019 04:00:00 - - - - - - - - - -
13.02.2019 03:00:00 1,4 1,1 37 20 61 33 ZW 1009,0 21 0,0
13.02.2019 02:00:00 1,2 1,0 43 23 61 33 ZW 1010,9 44 0,1
13.02.2019 01:00:00 0,7 0,5 38 20 54 29 ZW 1012,4 20 0,0
13.02.2019 00:00:00 0,4 0,2 42 23 54 29 WZW 1014,6 2,6 0,4
12.02.2019 23:00:00 0,3 -0,1 39 21 54 29 W 1016,0 5 0,0
12.02.2019 22:00:00 1,2 -2,7 34 19 44 24 W 1016,7 50 0,0
12.02.2019 21:00:00 0,8 -3,6 32 18 40 21 W 1017,5 50 0,0
12.02.2019 20:00:00 1,0 -3,5 29 16 39 21 W 1018,2 50 0,0
12.02.2019 19:00:00 0,9 -4,7 29 15 37 20 W 1018,5 50 0,0
12.02.2019 18:00:00 0,9 -5,3 29 16 40 22 W 1018,8 50 0,0
12.02.2019 17:00:00 0,9 -5,5 32 17 42 23 WNW 1018,6 50 0,0
12.02.2019 16:00:00 1,0 -5,7 22 12 42 23 WNW 1018,6 50 0,0
12.02.2019 15:00:00 1,3 -5,0 34 18 41 22 WNW 1018,1 50 0,0
12.02.2019 14:00:00 1,4 -5,2 26 14 44 24 WNW 1017,8 50 0,0
12.02.2019 13:00:00 1,0 -5,7 27 15 44 24 NW 1017,3 50 0,0
12.02.2019 12:00:00 0,5 -6,0 26 14 46 25 NW 1016,6 50 0,0
12.02.2019 11:00:00 -0,3 -6,2 33 18 51 27 NW 1016,7 50 0,0
12.02.2019 10:00:00 -0,8 -5,6 36 19 51 27 NW 1015,9 50 0,0
12.02.2019 09:00:00 -1,1 -5,3 31 17 49 27 NW 1015,3 50 0,0
12.02.2019 08:00:00 -1,2 -5,3 36 20 53 29 NW 1014,4 50 0,0
12.02.2019 07:00:00 -1,0 -5,4 37 20 53 29 NNW 1013,7 50 0,0
12.02.2019 06:00:00 -1,0 -5,3 29 16 53 29 NNW 1012,6 50 0,0
12.02.2019 05:00:00 -1,1 -5,2 39 21 53 29 NNW 1011,8 50 0,0
12.02.2019 04:00:00 -0,9 -4,9 37 20 55 30 NNW 1010,6 50 0,0
12.02.2019 03:00:00 -0,8 -4,8 34 19 55 30 NNW 1009,4 50 0,0
12.02.2019 02:00:00 -0,7 -4,6 36 19 54 29 NNW 1008,4 50 0,0
12.02.2019 01:00:00 -0,6 -4,8 36 19 53 29 NNW 1007,3 50 0,0
12.02.2019 00:00:00 -0,4 -4,7 37 20 53 28 NNW 1006,3 50 0,0
11.02.2019 23:00:00 -0,4 -4,3 37 20 51 27 NNW 1005,2 50 0,0
11.02.2019 22:00:00 -0,3 -4,0 33 18 51 28 NNW 1004,5 50 0,0
11.02.2019 21:00:00 -0,1 -4,1 37 20 54 29 NNW 1003,7 50 0,0
11.02.2019 20:00:00 0,4 -3,8 39 21 58 31 NNW 1003,1 50 0,0
11.02.2019 19:00:00 0,8 -3,3 42 23 58 31 NNW 1002,3 50 0,0
11.02.2019 18:00:00 1,2 -2,5 34 18 46 25 NW 1001,5 50 0,0
11.02.2019 17:00:00 1,5 -2,5 33 18 48 26 NNW 1000,5 50 0,0
11.02.2019 16:00:00 1,7 -2,7 28 15 54 29 NNW 999,4 50 0,0
11.02.2019 15:00:00 1,9 -2,2 31 17 54 29 NNW 998,2 50 0,0
11.02.2019 14:00:00 2,0 -0,8 28 15 50 27 NNW 997,1 50 0,0
11.02.2019 13:00:00 1,5 0,1 23 13 50 27 N 996,2 50 0,0

tt = temperatuur
td = dauwpunt
ff = windsnelheid
fx = windstoten
dd = windrichting
ppp = luchtdruk
vv = zicht
rr = neerslag

Weerstations in de omgeving